, NV

(GMT )
Eureka Airport

Weather History for K05U - September, 2013

Change the Weather History Date:

Tuesday, September 3, 2013

  Actual Average Record
Temperature  
Mean Temperature 64 °F -  
Max Temperature 73 °F - - ()
Min Temperature 55 °F - - ()
Degree Days  
Heating Degree Days 1    
Growing Degree Days 14 (Base 50)    
Moisture  
Dew Point 53 °F    
Average Humidity 69    
Maximum Humidity 94    
Minimum Humidity 47    
Precipitation  
Precipitation 0.34 in - - ()
Sea Level Pressure  
Sea Level Pressure 30.23 in    
Wind  
Wind Speed 9 mph (SE)    
Max Wind Speed 24 mph    
Max Gust Speed 29 mph    
Visibility 9 miles    
Events      
Averages and records for this station are not official NWS values.
T = Trace of Precipitation, MM = Missing Value Source: NWS Daily Summary

Daily Weather History Graph

Daily Weather History Graph

Search for Another Location

Airport or City:

Trip Planner

Search our weather history database for the weather conditions in past years. The results will help you decide how hot, cold, wet, or windy it might be!

Date:

Astronomy

Sep. 03, 2013 Rise Set
Actual Time 6:14 AM PDT 7:11 PM PDT
Civil Twilight 5:46 AM PDT 7:38 PM PDT
Nautical Twilight 5:14 AM PDT 8:11 PM PDT
Astronomical Twilight 4:40 AM PDT 8:45 PM PDT
Moon 4:32 AM PDT (9/3) 6:00 PM PDT (9/3)
Length of Visible Light 13h 51m
Length of Day
12h 57m
Waning Crescent, 3% of the Moon is Illuminated
Sep 3
Waning Crescent
Sep 5
New
Sep 12
First Quarter
Sep 19
Full
Sep 26
Last Quarter

Hourly Weather History & Observations

Time (PDT) Temp. Dew Point Humidity Pressure Visibility Wind Dir Wind Speed Gust Speed Precip Events Conditions
12:00 AM 64.4 °F 50.0 °F 59% 30.17 in 10.0 mi ESE 10.4 mph - N/A   Clear
12:20 AM 64.4 °F 50.0 °F 59% 30.17 in 10.0 mi SE 9.2 mph - N/A   Clear
12:40 AM 66.2 °F 50.0 °F 56% 30.18 in 10.0 mi SE 9.2 mph - N/A   Clear
1:00 AM 66.2 °F 50.0 °F 56% 30.17 in 10.0 mi ESE 11.5 mph - N/A   Clear
1:20 AM 66.2 °F 50.0 °F 56% 30.17 in 10.0 mi SE 10.4 mph - N/A   Clear
1:40 AM 68.0 °F 51.8 °F 56% 30.17 in 10.0 mi SE 8.1 mph - N/A   Clear
2:00 AM 66.2 °F 51.8 °F 60% 30.17 in 10.0 mi SE 9.2 mph - N/A   Clear
2:20 AM 66.2 °F 51.8 °F 60% 30.17 in 10.0 mi SE 10.4 mph - N/A   Clear
2:40 AM 64.4 °F 51.8 °F 64% 30.17 in 10.0 mi SE 11.5 mph - N/A   Clear
3:00 AM 64.4 °F 50.0 °F 59% 30.18 in 10.0 mi NW 4.6 mph - N/A   Clear
3:20 AM 62.6 °F 50.0 °F 63% 30.18 in 10.0 mi NNW 5.8 mph - N/A   Clear
3:40 AM 60.8 °F 50.0 °F 68% 30.18 in 10.0 mi North 4.6 mph - N/A   Partly Cloudy
4:00 AM 59.0 °F 50.0 °F 72% 30.18 in 10.0 mi NE 6.9 mph - N/A   Mostly Cloudy
4:20 AM 59.0 °F 50.0 °F 72% 30.18 in 10.0 mi East 5.8 mph - N/A   Overcast
4:40 AM 57.2 °F 50.0 °F 77% 30.19 in 10.0 mi North 4.6 mph - N/A   Mostly Cloudy
5:00 AM 57.2 °F 50.0 °F 77% 30.19 in 10.0 mi Calm Calm - N/A   Partly Cloudy
5:20 AM 57.2 °F 50.0 °F 77% 30.19 in 10.0 mi SSE 4.6 mph - N/A   Clear
5:40 AM 57.2 °F 50.0 °F 77% 30.19 in 10.0 mi South 3.5 mph - N/A   Clear
6:00 AM 57.2 °F 50.0 °F 77% 30.19 in 10.0 mi Calm Calm - N/A   Clear
6:20 AM 55.4 °F 50.0 °F 82% 30.19 in 10.0 mi West 3.5 mph - N/A   Clear
6:40 AM 55.4 °F 50.0 °F 82% 30.20 in 10.0 mi Calm Calm - N/A   Clear
7:00 AM 57.2 °F 50.0 °F 77% 30.20 in 10.0 mi Calm Calm - N/A   Clear
7:20 AM 57.2 °F 50.0 °F 77% 30.21 in 10.0 mi Calm Calm - N/A   Clear
7:40 AM 59.0 °F 50.0 °F 72% 30.21 in 10.0 mi Calm Calm - N/A   Mostly Cloudy
8:00 AM 60.8 °F 51.8 °F 72% 30.22 in 10.0 mi Calm Calm - N/A   Mostly Cloudy
8:20 AM 62.6 °F 51.8 °F 68% 30.23 in 10.0 mi NNE 3.5 mph - N/A   Overcast
8:40 AM 64.4 °F 53.6 °F 68% 30.23 in 10.0 mi Calm Calm - N/A   Overcast
9:00 AM 64.4 °F 53.6 °F 68% 30.24 in 10.0 mi East 4.6 mph - N/A   Overcast
9:20 AM 64.4 °F 53.6 °F 68% 30.25 in 10.0 mi SSE 15.0 mph - N/A   Overcast
9:40 AM 66.2 °F 53.6 °F 64% 30.25 in 10.0 mi SSE 15.0 mph 23.0 mph N/A   Overcast
10:00 AM 66.2 °F 55.4 °F 68% 30.26 in 10.0 mi SE 12.7 mph - N/A   Overcast
10:20 AM 66.2 °F 55.4 °F 68% 30.26 in 10.0 mi SSE 18.4 mph - N/A   Mostly Cloudy
10:40 AM 66.2 °F 53.6 °F 64% 30.26 in 10.0 mi SE 15.0 mph 26.5 mph N/A   Partly Cloudy
11:00 AM 68.0 °F 53.6 °F 60% 30.27 in 10.0 mi SE 16.1 mph 23.0 mph N/A   Clear
11:20 AM 68.0 °F 53.6 °F 60% 30.26 in 10.0 mi SE 19.6 mph - N/A   Scattered Clouds
11:40 AM 73.4 °F 53.6 °F 50% 30.26 in 10.0 mi SE 24.2 mph 28.8 mph N/A   Scattered Clouds
12:00 PM 73.4 °F 51.8 °F 47% 30.25 in 10.0 mi SE 17.3 mph 25.3 mph N/A   Partly Cloudy
12:20 PM 73.4 °F 51.8 °F 47% 30.24 in 10.0 mi SSE 18.4 mph 23.0 mph N/A   Scattered Clouds
12:40 PM 71.6 °F 53.6 °F 53% 30.23 in 10.0 mi SE 16.1 mph 21.9 mph N/A   Mostly Cloudy
1:00 PM 73.4 °F 51.8 °F 47% 30.23 in 10.0 mi SSE 18.4 mph 21.9 mph N/A   Overcast
1:20 PM 73.4 °F 53.6 °F 50% 30.22 in 10.0 mi SE 17.3 mph 24.2 mph N/A   Mostly Cloudy
1:40 PM 73.4 °F 55.4 °F 53% 30.22 in 8.0 mi SSE 13.8 mph 24.2 mph N/A   Overcast
2:00 PM 64.4 °F 57.2 °F 77% 30.25 in 2.5 mi WSW 9.2 mph 27.6 mph 0.01 in   Overcast
2:20 PM 64.4 °F 55.4 °F 73% 30.24 in 10.0 mi NW 4.6 mph - N/A   Mostly Cloudy
2:40 PM 64.4 °F 57.2 °F 77% 30.23 in 10.0 mi NNE 4.6 mph - N/A   Scattered Clouds
3:00 PM 66.2 °F 57.2 °F 73% 30.23 in 10.0 mi North 3.5 mph - N/A   Mostly Cloudy
3:20 PM 66.2 °F 57.2 °F 73% 30.22 in 10.0 mi NE 4.6 mph - N/A   Mostly Cloudy
3:40 PM 68.0 °F 57.2 °F 68% 30.22 in 10.0 mi SSE 9.2 mph - N/A   Scattered Clouds
4:00 PM 69.8 °F 53.6 °F 56% 30.20 in 10.0 mi South 15.0 mph - N/A   Scattered Clouds
4:20 PM 71.6 °F 53.6 °F 53% 30.19 in 10.0 mi SSE 11.5 mph - N/A   Partly Cloudy
4:40 PM 71.6 °F 53.6 °F 53% 30.15 in 10.0 mi SE 21.9 mph 28.8 mph N/A   Scattered Clouds
5:00 PM 71.6 °F 53.6 °F 53% 30.18 in 10.0 mi SSE 12.7 mph 18.4 mph N/A   Mostly Cloudy
5:20 PM 71.6 °F 55.4 °F 57% 30.20 in 10.0 mi South 11.5 mph - N/A   Scattered Clouds
5:40 PM 71.6 °F 53.6 °F 53% 30.20 in 10.0 mi South 12.7 mph 21.9 mph N/A   Partly Cloudy
6:00 PM 73.4 °F 53.6 °F 50% 30.18 in 10.0 mi SE 8.1 mph - N/A   Clear
6:20 PM 71.6 °F 53.6 °F 53% 30.19 in 10.0 mi SE 9.2 mph - N/A   Scattered Clouds
6:40 PM 68.0 °F 50.0 °F 52% 30.20 in 10.0 mi South 12.7 mph 16.1 mph N/A   Mostly Cloudy
6:55 PM 69.8 °F 51.8 °F 53% 30.23 in 10.0 mi WSW 17.3 mph 21.9 mph N/A   Mostly Cloudy
7:20 PM 64.4 °F 53.6 °F 68% 30.25 in 10.0 mi NW 13.8 mph 25.3 mph N/A   Mostly Cloudy
7:40 PM 59.0 °F 55.4 °F 88% 30.29 in 3.0 mi Calm Calm - 0.05 in   Overcast
8:00 PM 59.0 °F 55.4 °F 88% 30.31 in 5.0 mi SSE 3.5 mph - 0.06 in   Overcast
8:20 PM 59.0 °F 55.4 °F 88% 30.32 in 10.0 mi SSE 6.9 mph - 0.01 in   Overcast
8:40 PM 57.2 °F 55.4 °F 94% 30.33 in 4.0 mi ESE 4.6 mph - 0.03 in   Overcast
9:00 PM 57.2 °F 55.4 °F 94% 30.34 in 4.0 mi East 4.6 mph - 0.11 in   Overcast
9:20 PM 57.2 °F 55.4 °F 94% 30.33 in 4.0 mi ENE 8.1 mph - 0.05 in   Overcast
9:40 PM 57.2 °F 55.4 °F 94% 30.31 in 8.0 mi East 5.8 mph - 0.07 in   Overcast
10:00 PM 57.2 °F 55.4 °F 94% 30.29 in 8.0 mi SSE 6.9 mph - 0.09 in   Overcast
10:20 PM 57.2 °F 55.4 °F 94% 30.30 in 9.0 mi SSW 8.1 mph - N/A   Overcast
10:40 PM 57.2 °F 55.4 °F 94% 30.31 in 8.0 mi South 4.6 mph - 0.02 in   Overcast
11:00 PM 57.2 °F 55.4 °F 94% 30.29 in 10.0 mi SE 23.0 mph - 0.02 in   Overcast
11:20 PM 57.2 °F 53.6 °F 88% 30.27 in 10.0 mi SSE 12.7 mph 21.9 mph 0.01 in   Overcast
11:40 PM 59.0 °F 53.6 °F 82% 30.26 in 10.0 mi SSE 10.4 mph - 0.01 in   Mostly Cloudy